PEGASUS DEB, 24082

Orbit data source: Space-Track

PEGASUS DEB, 24082 is space debris in LEO originally from a launch on Thu, 19 May 1994 UTC launched from the Air Force Western Test Range (AFWTR). Debris objects in space refer to the collection of defunct objects orbiting the Earth. Examples of debris include non-operational satellites, rocket bodies, and fragments generated from explosions, collisions, or faulty payload assembly.

Loading next visibility...
Identifier
24082, 1994-029ED
Orbit
LEO
Country
Flag of USUS
Related business
Manufacturer
Unknown
Mission
Spacecraft
Bus & Motor
Unknown
Mass
Unknown
Launch date (UTC)
1994-05-19 (32 years ago)
Launch vehicle
Unknown
Launch site
Air Force Western Test Range (AFWTR)
Object type
Payload
Rocket body
Debris
Shape & HBR
Unknown shape, 0.1 m
Radar Cross Section
Medium (>0.1 m² and <1 m²)

Expand to show TLE details & history
Last TLE update: 12 hours ago

TLE from 12 hours ago
0 PEGASUS DEB
1 24082U 94029ED  26118.83266266  .00012419  00000-0  61603-3 0  9993
2 24082  81.9142  29.8046 0043290  15.8979 344.3599 15.16762434612868
Epoch: 2026-04-28T19:59Z
TLE epoch observation values (Epoch: 2026-04-28T19:59:02.053Z)
Latitude
-0.00005°
Longitude
-126.75627°
Altitude
489.964 km
Speed
7.636 km/s
True Right ascension
01h 59m 13s
True Declination
0° 00' 00"
Sunlit
Object was in daylight at epoch
Visualization orbit readout
Latitude
Unknown
Longitude
Unknown
Altitude
Unknown
Speed
Unknown
Apparent Right ascension
Unknown
Apparent Declination
Unknown
Sunlit
N/A
Visualization observer readout
Local Sidereal Time
15:14:31
Azimuth
Unknown
Elevation
Unknown
Doppler factor
Unknown
Orbital elements
Apogee altitude
542.464 km
Perigee altitude
482.803 km
Semi-major axis
6,890.771 km
Eccentricity
0.00433
Inclination
81.9142°
RAAN
29.8046°
Arg. of periapsis
15.8979°
True anomaly
344.22546°
Mean anomaly
344.3599°
Eccentric anomaly
344.29275°
Mean motion
3.79439 °/min
Orbital period
94.88 mins
BSTAR
0.00061603
Loading maneuver chart data...
Computing Atmospheric mass density...

Documentation

Showing up to 5 results
|